Content
SEND FEEDBACK

Daily
Averages
Monthly
Summary
United States of America

EL PASO, TEXAS


Home > North America > United States > Texas
Elevation: 3918 feet     Latitude: 31 48N     Longitude: 106 24W

WEATHER
 
SELECT A DAY
Number of Records: 172,087;   Date Range: 1/1/95 - 8/28/14
 
SHARE

PRINT THIS DATA

[ ← Previous Day ]
WEATHER ALMANAC - MAY 13, 2013
[ Next Day → ]
[ °C ]   °F
Weather ElementAverageHighLow
Temperature70.6 °F82 °F (3:51 pm)57.9 °F (5:51 am)
Dewpoint29.1 °F35.1 °F (5:51 am)19.9 °F (2:51 pm)
Humidity23.8 %42 % (5:51 am)10 % (3:51 pm)
Barometer30.04 in30.12 in (8:51 am)29.93 in (6:51 pm)
Wind Speed5.1 mph11.5 mph (1:51 pm)
Wind Gust18.4 mph (1:51 pm)
Weather ElementAverage
Visibility10 mi
Wind DirectionESE (104.3 °)

Weather ElementTotal
Precipitation---
Cooling Degree Days5 (Base 65)
Growing Degree Days20 (Base 50)
Averaged from 23 records on May 13, 2013
WEATHER CONDITIONS BREAKOUT
WIND DIRECTION BREAKOUT
WEATHER BY HOUR - MAY 13, 2013
[ °C ]   °F
Local TimeTemperatureDewpointHumidityBarometerVisibilityWind DirectionWind SpeedGust SpeedPrecipitationEventsConditions
1:51 AM63.0 °F30.0 °F29 %30.06 in10.0 miSouth (170°)4.6 mphClear
2:51 AM62.1 °F32.0 °F32 %30.06 in10.0 miCalmClear
3:51 AM60.1 °F32.0 °F35 %30.07 in10.0 miCalmClear
4:51 AM59.0 °F34.0 °F39 %30.07 in10.0 miSSE (150°)6.9 mphClear
5:51 AM57.9 °F35.1 °F42 %30.08 in10.0 miCalmClear
6:51 AM60.1 °F35.1 °F39 %30.10 in10.0 miCalmClear
7:51 AM63.0 °F35.1 °F35 %30.11 in10.0 miCalmClear
8:51 AM64.0 °F35.1 °F34 %30.12 in10.0 miEast (90°)3.5 mphClear
9:51 AM66.9 °F33.1 °F28 %30.12 in10.0 miESE (110°)5.8 mphClear
10:51 AM71.1 °F33.1 °F25 %30.11 in10.0 miSE (130°)8.1 mphPartly Cloudy
11:51 AM73.9 °F28.0 °F18 %30.08 in10.0 miESE (110°)9.2 mphPartly Cloudy
12:51 PM75.9 °F23.0 °F14 %30.06 in10.0 miESE (110°)6.9 mphPartly Cloudy
1:51 PM78.1 °F24.1 °F14 %30.03 in10.0 miEast (90°)11.5 mph18.4 mphScattered Clouds
2:51 PM80.1 °F19.9 °F11 %30.00 in10.0 miEast (90°)6.9 mphPartly Cloudy
3:51 PM82.0 °F21.0 °F10 %29.97 in10.0 miSW (230°)3.5 mphPartly Cloudy
4:51 PM82.0 °F21.0 °F10 %29.95 in10.0 miESE (110°)9.2 mphPartly Cloudy
5:51 PM80.6 °F21.2 °F11 %30.11 in10.0 miESE (120°)4.6 mphPartly Cloudy
6:51 PM81.0 °F23.0 °F12 %29.93 in10.0 miSE (140°)6.9 mphScattered Clouds
7:51 PM79.0 °F26.1 °F14 %29.94 in10.0 miSE (140°)6.9 mphPartly Cloudy
8:51 PM75.9 °F28.9 °F18 %29.95 in10.0 miSouth (170°)5.8 mphPartly Cloudy
9:51 PM73.0 °F30.0 °F20 %29.96 in10.0 miSSE (150°)4.6 mphPartly Cloudy
10:51 PM68.0 °F33.1 °F27 %29.97 in10.0 miSSE (160°)5.8 mphClear
11:51 PM68.0 °F35.1 °F30 %29.96 in10.0 miSE (130°)6.9 mphClear
Hourly data recorded from KELP, located miles away from El Paso, Texas







STORIES FROM OUR PARTNERS